Regional Weather Roundup
Issued by NWS

Home | Current Version | Previous Version | Graphics & Text | Print | Product List | Glossary On
Versions: 1 2 3 4 5 6 7 8 9 10 11 12 13 14 15 16 17 18 19 20 21 22 23 24 25 26 27 28 29 30 31 32 33 34 35 36 37 38 39 40 41 42 43 44 45 46 47 48 49 50
195
ASUS45 KBOU 241207
RWRCO

WEATHER ROUNDUP FOR COLORADO
NATIONAL WEATHER SERVICE DENVER/BOULDER CO
600 AM MDT WED AUG 24 2016

NOTE: "FAIR" INDICATES FEW OR NO CLOUDS BELOW 12000 FEET WITH NO
SIGNIFICANT WEATHER AND/OR OBSTRUCTIONS TO VISIBILITY.

COZ001>005-013-030-031-241300-
...NORTHWEST COLORADO...

CITY           SKY/WX    TMP DP  RH WIND       PRES   REMARKS
CRAIG          FAIR      46  42  86 CALM      30.24S
HAYDEN         FAIR      52  39  62 SE7       30.25S
MEEKER         FAIR      45  43  93 NE3       30.26R
MOUNT WERNER   NOT AVBL
STEAMBOAT SPGS FAIR      48  43  82 CALM      30.28S
WALDEN         CLOUDY    46  37  71 SE5       30.36R
$$

COZ006>008-011-241300-
...WEST CENTRAL VALLEYS...

CITY           SKY/WX    TMP DP  RH WIND       PRES   REMARKS
GRAND JUNCTION FAIR      59  48  67 E9        30.19S
MONTROSE       FAIR      54  51  90 CALM      30.27R
EAGLE          FAIR      48  45  87 SE5       30.31S
RIFLE          FAIR      53  50  89 CALM      30.25R
DELTA          NOT AVBL
NUCLA          FAIR      54  52  94 E7        30.30R
$$

COZ017>023-064>068-241300-
...SOUTHWEST COLORADO...

CITY           SKY/WX    TMP DP  RH WIND       PRES   REMARKS
DURANGO        MOCLDY    52  49  89 CALM      30.28R
CORTEZ         MOCLDY    53  52  96 NE6       30.25S
PAGOSA SPRINGS MOCLDY    46  46  98 CALM      30.33S
TELLURIDE      MOCLDY    44  44 100 CALM      30.41S FOG
WOLF CREEK PAS CLOUDY    36  36 100 SW5       30.54S
$$

COZ009-010-012-014-032>034-037-058>063-241300-
...CENTRAL COLORADO...

CITY           SKY/WX    TMP DP  RH WIND       PRES   REMARKS
ASPEN          FAIR      47  45  93 SW3       30.33S
BUENA VISTA    LGT RAIN  47  45  91 NW3       30.35S
COPPER MTN     LGT RAIN  37  34  87 CALM      30.53R
BERTHOUD PASS  CLOUDY    34  21  60 E9        30.57R WCI  26
COTTONWOOD PAS CLOUDY    46  41  81 CALM      30.43S
GUNNISON       FAIR      48  45  87 N6        30.37R
KREMMLING      MOCLDY    50  43  76 N3        30.34R
LEADVILLE      CLOUDY    40  38  93 CALM      30.42S
MONARCH PASS   FOG       36  36 100 CALM      30.61S VSB 1/4
SALIDA         CLOUDY    51  47  87 CALM      30.41R
SUNLIGHT       FAIR      43  37  81 S3        30.51R
WILKERSON PASS DRIZZLE   37  34  87 S6        30.53R
$$

COZ069>075-241300-
...SAN LUIS VALLEY/SANGRE DE CRISTO MOUNTAINS...

CITY           SKY/WX    TMP DP  RH WIND       PRES   REMARKS
ALAMOSA        CLOUDY    45  44  97 N5        30.30F
LA VETA PASS   NOT AVBL
SAGUACHE       CLOUDY    50  46  87 CALM      30.34S
$$

COZ035-036-038>040-241300-
...NORTHERN COLORADO FRONT RANGE...

CITY           SKY/WX    TMP DP  RH WIND       PRES   REMARKS
DENVER INTL AP CLOUDY    64  42  44 S9        30.16S
DMNS CITY PARK   N/A     63  44  50 SE7       30.18R
AURORA         MOCLDY    60  45  56 S7        30.19R
FRONT RANGE AP NOT AVBL
ERIE MUNI ARPT FAIR      65  41  41 S6        30.14S
BOULDER MUN AP MOCLDY    66  39  37 CALM      30.15R
CENTENNIAL     CLOUDY    63  41  44 SW5       30.20R
BROOMFIELD     MOCLDY    66  43  42 S7        30.18S
FORT COLLINS   FAIR      66  43  42 SE17      30.13R
LONGMONT       CLOUDY    67  43  41 SW6       30.15S
$$

COZ041-046-047-076>085-087-088-241300-
...PIKES PEAK/PALMER DIVIDE AND SOUTHERN FOOTHILLS...

CITY           SKY/WX    TMP DP  RH WIND       PRES   REMARKS
COLO. SPRINGS  MOCLDY    58  44  60 N5        30.24R
A. F. ACADEMY  MOCLDY    57  45  63 E2        30.25R
SCHRIEVER AFB  NOT AVBL
ELLICOTT       NOT AVBL
FALCON         MOCLDY    55  42  62 NW5       30.28R
FORT CARSON    NOT AVBL
LIMON          CLOUDY    58  42  55 N3        30.18R
MONUMENT HILL  MOCLDY    54  41  62 SW3       30.29R
TRINIDAD       FAIR      53  49  86 W9        30.21R
$$

COZ042>045-048>051-090-091-241300-
...NORTHEAST COLORADO...

CITY           SKY/WX    TMP DP  RH WIND       PRES   REMARKS
GREELEY ARPT   MOCLDY    64  46  52 SE5       30.14R
AKRON          CLOUDY    62  39  42 NE7       30.15R
BURLINGTON     FAIR      63  42  46 NE7       30.11R
WRAY           FAIR      61  43  51 W7        30.13R
STERLING       CLOUDY    63  45  51 CALM      30.14R
HOLYOKE        FAIR      61  43  51 CALM      30.13R
FORT MORGAN    LGT RAIN  71  34  25 E6        30.15S
$$

COZ086-089-092>099-241300-
...SOUTHEAST COLORADO...

CITY           SKY/WX    TMP DP  RH WIND       PRES   REMARKS
PUEBLO         FAIR      59  51  75 NW6       30.15R
LA JUNTA       FAIR      61  52  72 W12       30.11R
LAMAR          FAIR      60  54  80 NW7       30.08R
SPRINGFIELD      N/A     59  50  72 NW7       30.11R
$$




USA.gov is the U.S. government's official web portal to all federal, state and local government web resources and services.